Previsão horária em Barreirinha

Hoje, 21 Outubro, Quarta-feira

Tempo Temperatura Precipitação Vento Pressão Humidade
00:00 +28°C° 0 mm 1 m/s 754 mmHg 68%
01:00 +28°C° 0 mm 1 m/s 754 mmHg 70%
02:00 +27°C° 0 mm 1 m/s 754 mmHg 71%
03:00 +27°C° 0.1 mm 1 m/s 754 mmHg 73%
04:00 +27°C° 0.1 mm 1 m/s 754 mmHg 75%
05:00 +27°C° 0.1 mm 1 m/s 755 mmHg 77%
06:00 +29°C° 0 mm 1 m/s 756 mmHg 70%
07:00 +31°C° 0 mm 2 m/s 757 mmHg 62%
08:00 +34°C° 0 mm 2 m/s 757 mmHg 55%
09:00 +36°C° 0 mm 2 m/s 757 mmHg 48%
10:00 +38°C° 0 mm 2 m/s 757 mmHg 41%
11:00 +40°C° 0 mm 2 m/s 757 mmHg 34%
12:00 +40°C° 0 mm 2 m/s 756 mmHg 34%
13:00 +40°C° 0 mm 1 m/s 755 mmHg 34%
14:00 +40°C° 0 mm 1 m/s 754 mmHg 34%
15:00 +36°C° 0.2 mm 1 m/s 753 mmHg 44%
16:00 +34°C° 0.2 mm 2 m/s 753 mmHg 54%
17:00 +31°C° 0.2 mm 2 m/s 753 mmHg 63%
18:00 +30°C° 0.3 mm 2 m/s 754 mmHg 69%
19:00 +29°C° 0.3 mm 1 m/s 754 mmHg 74%
20:00 +26°C° 0.3 mm 0 m/s 755 mmHg 80%
21:00 +25°C° 0.1 mm 0 m/s 755 mmHg 81%
22:00 +25°C° 0.1 mm 0 m/s 755 mmHg 83%
23:00 +25°C° 0.1 mm 0 m/s 755 mmHg 85%

Amanhã, 22 Outubro, Quinta-feira

Tempo Temperatura Precipitação Vento Pressão Humidade
00:00 +26°C° 0 mm 1 m/s 754 mmHg 85%
01:00 +26°C° 0 mm 1 m/s 754 mmHg 86%
02:00 +26°C° 0 mm 1 m/s 753 mmHg 87%
03:00 +26°C° 0 mm 1 m/s 754 mmHg 87%
04:00 +26°C° 0 mm 1 m/s 754 mmHg 87%
05:00 +25°C° 0 mm 1 m/s 754 mmHg 87%
06:00 +28°C° 0 mm 1 m/s 755 mmHg 76%
07:00 +30°C° 0 mm 1 m/s 756 mmHg 65%
08:00 +33°C° 0 mm 1 m/s 756 mmHg 54%
09:00 +36°C° 0 mm 2 m/s 756 mmHg 45%
10:00 +39°C° 0 mm 2 m/s 756 mmHg 37%
11:00 +42°C° 0 mm 2 m/s 756 mmHg 28%
12:00 +41°C° 0 mm 1 m/s 754 mmHg 28%
13:00 +41°C° 0 mm 1 m/s 753 mmHg 28%
14:00 +41°C° 0 mm 1 m/s 752 mmHg 28%
15:00 +40°C° 0 mm 1 m/s 752 mmHg 30%
16:00 +39°C° 0 mm 1 m/s 751 mmHg 33%
17:00 +37°C° 0 mm 1 m/s 751 mmHg 35%
18:00 +35°C° 0 mm 1 m/s 752 mmHg 39%
19:00 +34°C° 0 mm 1 m/s 753 mmHg 42%
20:00 +32°C° 0 mm 1 m/s 753 mmHg 45%
21:00 +31°C° 0 mm 1 m/s 753 mmHg 47%
22:00 +31°C° 0 mm 1 m/s 753 mmHg 49%
23:00 +28°C° 0 mm 0 m/s 754 mmHg 52%

Depois de amanhã, 23 Outubro, Sexta-feira

Tempo Temperatura Precipitação Vento Pressão Humidade
00:00 +28°C° 0 mm 0 m/s 753 mmHg 54%
01:00 +27°C° 0 mm 0 m/s 753 mmHg 56%
02:00 +27°C° 0 mm 0 m/s 753 mmHg 58%
03:00 +26°C° 0.3 mm 0 m/s 753 mmHg 64%
04:00 +25°C° 0.3 mm 0 m/s 754 mmHg 70%
05:00 +24°C° 0.3 mm 0 m/s 754 mmHg 76%
06:00 +26°C° 0.5 mm 0 m/s 755 mmHg 70%
07:00 +28°C° 0.5 mm 0 m/s 756 mmHg 65%
08:00 +30°C° 0.5 mm 0 m/s 756 mmHg 59%
09:00 +33°C° 0 mm 0 m/s 756 mmHg 50%
10:00 +39°C° 0 mm 1 m/s 756 mmHg 40%
11:00 +41°C° 0 mm 1 m/s 755 mmHg 31%
12:00 +42°C° 0 mm 1 m/s 754 mmHg 30%
13:00 +42°C° 0 mm 1 m/s 753 mmHg 29%
14:00 +42°C° 0 mm 1 m/s 752 mmHg 28%
15:00 +40°C° 0 mm 1 m/s 751 mmHg 34%
16:00 +36°C° 0 mm 1 m/s 751 mmHg 40%
17:00 +34°C° 0 mm 1 m/s 751 mmHg 47%
18:00 +31°C° 0 mm 0 m/s 751 mmHg 50%
19:00 +30°C° 0 mm 0 m/s 752 mmHg 53%
20:00 +29°C° 0 mm 0 m/s 752 mmHg 56%
21:00 +29°C° 0 mm 0 m/s 752 mmHg 55%
22:00 +29°C° 0 mm 0 m/s 753 mmHg 54%
23:00 +31°C° 0 mm 1 m/s 753 mmHg 53%

24 Outubro, Sábado

Tempo Temperatura Precipitação Vento Pressão Humidade
00:00 +31°C° 0 mm 1 m/s 753 mmHg 55%
01:00 +30°C° 0 mm 1 m/s 753 mmHg 56%
02:00 +30°C° 0 mm 1 m/s 753 mmHg 57%
03:00 +30°C° 0.1 mm 1 m/s 753 mmHg 59%
04:00 +29°C° 0.1 mm 1 m/s 754 mmHg 61%
05:00 +29°C° 0.1 mm 1 m/s 754 mmHg 63%
06:00 +29°C° 0.2 mm 1 m/s 755 mmHg 63%
07:00 +30°C° 0.2 mm 1 m/s 756 mmHg 64%
08:00 +28°C° 0.2 mm 0 m/s 757 mmHg 64%
09:00 +32°C° 0 mm 1 m/s 757 mmHg 58%
10:00 +34°C° 0 mm 1 m/s 756 mmHg 52%
11:00 +35°C° 0 mm 1 m/s 756 mmHg 47%
12:00 +37°C° 0 mm 1 m/s 755 mmHg 42%
13:00 +39°C° 0 mm 1 m/s 753 mmHg 37%
14:00 +40°C° 0 mm 1 m/s 752 mmHg 32%
15:00 +39°C° 0 mm 1 m/s 752 mmHg 35%
16:00 +37°C° 0 mm 1 m/s 751 mmHg 38%
17:00 +36°C° 0 mm 1 m/s 751 mmHg 41%
18:00 +34°C° 0 mm 1 m/s 751 mmHg 45%
19:00 +33°C° 0 mm 1 m/s 752 mmHg 49%
20:00 +31°C° 0 mm 1 m/s 752 mmHg 52%
21:00 +31°C° 0 mm 1 m/s 752 mmHg 55%
22:00 +30°C° 0 mm 1 m/s 752 mmHg 57%
23:00 +29°C° 0 mm 1 m/s 752 mmHg 60%

25 Outubro, Domingo

Tempo Temperatura Precipitação Vento Pressão Humidade
00:00 +29°C° 0.2 mm 1 m/s 753 mmHg 65%
01:00 +28°C° 0.2 mm 1 m/s 753 mmHg 71%
02:00 +27°C° 0.2 mm 1 m/s 753 mmHg 76%
03:00 +27°C° 0.1 mm 1 m/s 753 mmHg 80%
04:00 +26°C° 0.1 mm 1 m/s 754 mmHg 83%
05:00 +26°C° 0.1 mm 1 m/s 754 mmHg 87%
06:00 +28°C° 0 mm 1 m/s 755 mmHg 80%
07:00 +30°C° 0 mm 1 m/s 755 mmHg 73%
08:00 +31°C° 0 mm 1 m/s 756 mmHg 66%
09:00 +34°C° 0 mm 1 m/s 756 mmHg 55%
10:00 +36°C° 0 mm 1 m/s 755 mmHg 45%
11:00 +39°C° 0 mm 1 m/s 755 mmHg 35%
12:00 +40°C° 0 mm 1 m/s 754 mmHg 32%
13:00 +41°C° 0 mm 1 m/s 753 mmHg 29%
14:00 +42°C° 0 mm 1 m/s 752 mmHg 26%
15:00 +40°C° 0 mm 1 m/s 751 mmHg 29%
16:00 +39°C° 0 mm 1 m/s 751 mmHg 33%
17:00 +37°C° 0 mm 1 m/s 751 mmHg 36%
18:00 +35°C° 0 mm 1 m/s 751 mmHg 40%
19:00 +31°C° 0 mm 0 m/s 752 mmHg 44%
20:00 +30°C° 0 mm 0 m/s 752 mmHg 49%
21:00 +29°C° 0 mm 0 m/s 752 mmHg 53%
22:00 +28°C° 0 mm 0 m/s 753 mmHg 57%
23:00 +27°C° 0 mm 0 m/s 753 mmHg 61%

26 Outubro, Segunda-feira

Tempo Temperatura Precipitação Vento Pressão Humidade
00:00 +27°C° 0 mm 0 m/s 752 mmHg 63%
01:00 +26°C° 0 mm 0 m/s 752 mmHg 66%
02:00 +25°C° 0 mm 0 m/s 752 mmHg 69%
03:00 +25°C° 0 mm 0 m/s 752 mmHg 71%
04:00 +25°C° 0 mm 0 m/s 752 mmHg 72%
05:00 +25°C° 0 mm 0 m/s 753 mmHg 74%
06:00 +29°C° 0 mm 1 m/s 753 mmHg 65%
07:00 +31°C° 0 mm 1 m/s 754 mmHg 57%
08:00 +34°C° 0 mm 1 m/s 755 mmHg 48%
09:00 +36°C° 0 mm 1 m/s 755 mmHg 42%
10:00 +39°C° 0 mm 1 m/s 754 mmHg 36%
11:00 +41°C° 0 mm 2 m/s 754 mmHg 30%
12:00 +41°C° 0 mm 2 m/s 753 mmHg 30%
13:00 +41°C° 0 mm 2 m/s 752 mmHg 29%
14:00 +42°C° 0 mm 2 m/s 751 mmHg 28%
15:00 +40°C° 0 mm 2 m/s 751 mmHg 32%
16:00 +39°C° 0 mm 2 m/s 751 mmHg 35%
17:00 +37°C° 0 mm 1 m/s 751 mmHg 38%
18:00 +35°C° 0 mm 1 m/s 751 mmHg 43%
19:00 +34°C° 0 mm 1 m/s 752 mmHg 48%
20:00 +32°C° 0 mm 1 m/s 752 mmHg 53%
21:00 +31°C° 0 mm 1 m/s 752 mmHg 55%
22:00 +31°C° 0 mm 1 m/s 753 mmHg 57%
23:00 +30°C° 0 mm 1 m/s 753 mmHg 59%

27 Outubro, Terça-feira

Tempo Temperatura Precipitação Vento Pressão Humidade
00:00 +30°C° 0 mm 1 m/s 752 mmHg 60%
01:00 +29°C° 0 mm 1 m/s 752 mmHg 61%
02:00 +29°C° 0 mm 1 m/s 752 mmHg 63%
03:00 +28°C° 0 mm 1 m/s 752 mmHg 65%
04:00 +28°C° 0 mm 1 m/s 753 mmHg 68%
05:00 +28°C° 0 mm 1 m/s 753 mmHg 70%
06:00 +29°C° 0.1 mm 1 m/s 754 mmHg 65%
07:00 +31°C° 0.1 mm 1 m/s 755 mmHg 61%
08:00 +33°C° 0.1 mm 1 m/s 755 mmHg 56%
09:00 +35°C° 0 mm 1 m/s 755 mmHg 48%
10:00 +38°C° 0 mm 2 m/s 754 mmHg 41%
11:00 +41°C° 0 mm 2 m/s 754 mmHg 33%
12:00 +41°C° 0 mm 2 m/s 753 mmHg 32%
13:00 +42°C° 0 mm 1 m/s 752 mmHg 30%
14:00 +43°C° 0 mm 1 m/s 751 mmHg 28%
15:00 +41°C° 0 mm 1 m/s 750 mmHg 30%
16:00 +37°C° 0 mm 0 m/s 750 mmHg 33%
17:00 +35°C° 0 mm 0 m/s 750 mmHg 36%
18:00 +34°C° 0 mm 0 m/s 750 mmHg 40%
19:00 +32°C° 0 mm 0 m/s 750 mmHg 44%
20:00 +30°C° 0 mm 0 m/s 751 mmHg 47%
21:00 +30°C° 0 mm 0 m/s 751 mmHg 49%
22:00 +29°C° 0 mm 0 m/s 751 mmHg 50%
23:00 +29°C° 0 mm 0 m/s 751 mmHg 52%
Mostrar mais